COSMOS 1275 DEB, 42102

Orbit data source: Space-Track

COSMOS 1275 DEB, 42102 is space debris in LEO originally from a launch on Thu, 04 Jun 1981 UTC launched from the Plesetsk Missile And Space Complex (PKMTR). Debris objects in space refer to the collection of defunct objects orbiting the Earth. Examples of debris include non-operational satellites, rocket bodies, and fragments generated from explosions, collisions, or faulty payload assembly.

Loading next visibility...
Identifier
42102, 1981-053PN
Orbit
LEO
Country
Flag of CISCIS
Related business
Manufacturer
Unknown
Mission
Spacecraft
Bus & Motor
Unknown
Mass
Unknown
Launch date (UTC)
1981-06-04 (45 years ago)
Launch vehicle
Unknown
Launch site
Plesetsk Missile And Space Complex (PKMTR)
Object type
Payload
Rocket body
Debris
Shape & HBR
Unknown shape, 0.1 m
Radar Cross Section
Small (<0.1 m²)

Expand to show TLE details & history
Last TLE update: 19 hours ago

TLE from 19 hours ago
0 COSMOS 1275 DEB
1 42102U 81053PN  26071.57851634  .00001359  00000-0  10825-2 0  9997
2 42102  83.0105 125.5199 0075947 178.4503 181.6912 13.89059639621189
Epoch: 2026-03-12T13:53Z
TLE epoch observation values (Epoch: 2026-03-12T13:53:03.811Z)
Latitude
-0.00001°
Longitude
107.02763°
Altitude
990.354 km
Speed
7.329 km/s
True Right ascension
08h 22m 04s
True Declination
0° 00' 00"
Sunlit
Object was in full shadow at epoch
Visualization orbit readout
Latitude
Unknown
Longitude
Unknown
Altitude
Unknown
Speed
Unknown
Apparent Right ascension
Unknown
Apparent Declination
Unknown
Sunlit
N/A
Visualization observer readout
Local Sidereal Time
13:08:24
Azimuth
Unknown
Elevation
Unknown
Doppler factor
Unknown
Orbital elements
Apogee altitude
984.551 km
Perigee altitude
873.559 km
Semi-major axis
7,307.192 km
Eccentricity
0.00759
Inclination
83.0105°
RAAN
125.5199°
Arg. of periapsis
178.4503°
True anomaly
181.66576°
Mean anomaly
181.6912°
Eccentric anomaly
181.67845°
Mean motion
3.4747 °/min
Orbital period
103.61 mins
BSTAR
0.0010825
Loading maneuver chart data...
Computing Atmospheric mass density...
Loading historical data...
Loading historical data...
Loading historical data...
Loading historical data...
Loading historical data...
Loading historical data...
Loading historical data...

Documentation

Showing up to 5 results
|